Location: �perlecques
(50.8057°N, 2.1521°E)
Time: 23:51:15
(UTC+00:00)

VELOX 1 - Pass Details

Date: 02 October 2021
Orbit: 627 x 642 km, 98.3° (Epoch: 21 October)

Event Time Altitude Azimuth Distance (km) Brightness Sun altitude
Exits shadow 03:41:52 48° 294° (WNW) 822 ? -21.2°
Drops below altitude 10° 03:45:29 10° 337° (NNW) 2,016 ? -20.7°
Sets 03:47:44 0° 342° (NNW) 2,928 ? -20.4°
